![]() |
EMODnet Physics ERDDAP
Easier access to scientific data |
log in|
Brought to you by EMODnet Physics |
| Dataset Title: | NDBC - Collection of dew point temperature (DEWT) TimeSeries - IN SITU MultiPointTimeSeriesObservation
|
| Institution: | NDBC (Dataset ID: TS_DEWT_NDBC) |
| Information: | Summary
| License
| FGDC
| ISO 19115
| Metadata
| Background
| Subset
| Data Access Form
| Make a graph
|
| Name | Last modified | Size | Description | |
|---|---|---|---|---|
| Parent Directory | - | - | ||
| 41049_TS_DEWT_012010.nc | 26-Oct-2024 12:23 | 429833 | ||
| 41049_TS_DEWT_012011.nc | 26-Oct-2024 12:23 | 429441 | ||
| 41049_TS_DEWT_012012.nc | 26-Oct-2024 12:23 | 429833 | ||
| 41049_TS_DEWT_012013.nc | 26-Oct-2024 12:23 | 429832 | ||
| 41049_TS_DEWT_012014.nc | 26-Oct-2024 12:23 | 429834 | ||
| 41049_TS_DEWT_012015.nc | 26-Oct-2024 12:23 | 429836 | ||
| 41049_TS_DEWT_012016.nc | 26-Oct-2024 12:24 | 429736 | ||
| 41049_TS_DEWT_012017.nc | 26-Oct-2024 12:24 | 450004 | ||
| 41049_TS_DEWT_012018.nc | 26-Oct-2024 12:24 | 4720696 | ||
| 41049_TS_DEWT_012019.nc | 26-Oct-2024 12:24 | 429268 | ||
| 41049_TS_DEWT_012020.nc | 26-Oct-2024 12:24 | 429473 | ||
| 41049_TS_DEWT_012021.nc | 26-Oct-2024 12:24 | 429220 | ||
| 41049_TS_DEWT_012022.nc | 26-Oct-2024 12:24 | 429493 | ||
| 41049_TS_DEWT_012023.nc | 26-Oct-2024 12:24 | 429493 | ||
| 41049_TS_DEWT_012024.nc | 26-Oct-2024 12:24 | 429468 | ||
| 41049_TS_DEWT_012025.nc | 07-Feb-2025 11:41 | 423916 | ||
| 41049_TS_DEWT_012026.nc | 02-Feb-2026 19:59 | 429490 | ||
| 41049_TS_DEWT_022010.nc | 26-Oct-2024 12:24 | 429493 | ||
| 41049_TS_DEWT_022011.nc | 26-Oct-2024 12:24 | 429492 | ||
| 41049_TS_DEWT_022012.nc | 26-Oct-2024 12:24 | 429489 | ||
| 41049_TS_DEWT_022013.nc | 26-Oct-2024 12:24 | 429482 | ||
| 41049_TS_DEWT_022014.nc | 26-Oct-2024 12:24 | 429492 | ||
| 41049_TS_DEWT_022015.nc | 26-Oct-2024 12:24 | 429493 | ||
| 41049_TS_DEWT_022016.nc | 26-Oct-2024 12:24 | 429492 | ||
| 41049_TS_DEWT_022017.nc | 26-Oct-2024 12:24 | 437438 | ||
| 41049_TS_DEWT_022018.nc | 26-Oct-2024 12:24 | 450383 | ||
| 41049_TS_DEWT_022019.nc | 26-Oct-2024 12:24 | 4040896 | ||
| 41049_TS_DEWT_022020.nc | 26-Oct-2024 12:24 | 420990 | ||
| 41049_TS_DEWT_022021.nc | 26-Oct-2024 12:25 | 429401 | ||
| 41049_TS_DEWT_022022.nc | 26-Oct-2024 12:25 | 426157 | ||
| 41049_TS_DEWT_022023.nc | 26-Oct-2024 12:25 | 428863 | ||
| 41049_TS_DEWT_022024.nc | 16-Sep-2024 16:51 | 429834 | ||
| 41049_TS_DEWT_022025.nc | 01-Mar-2025 08:51 | 427666 | ||
| 41049_TS_DEWT_022026.nc | 01-Mar-2026 11:17 | 429835 | ||
| 41049_TS_DEWT_032010.nc | 26-Oct-2024 12:25 | 428757 | ||
| 41049_TS_DEWT_032011.nc | 26-Oct-2024 12:25 | 429841 | ||
| 41049_TS_DEWT_032012.nc | 26-Oct-2024 12:25 | 429794 | ||
| 41049_TS_DEWT_032013.nc | 26-Oct-2024 12:25 | 429831 | ||
| 41049_TS_DEWT_032014.nc | 26-Oct-2024 12:25 | 429832 | ||
| 41049_TS_DEWT_032015.nc | 26-Oct-2024 12:25 | 429829 | ||
| 41049_TS_DEWT_032016.nc | 26-Oct-2024 12:25 | 429819 | ||
| 41049_TS_DEWT_032017.nc | 26-Oct-2024 12:25 | 429805 | ||
| 41049_TS_DEWT_032018.nc | 26-Oct-2024 12:25 | 449442 | ||
| 41049_TS_DEWT_032019.nc | 26-Oct-2024 12:25 | 451361 | ||
| 41049_TS_DEWT_032020.nc | 26-Oct-2024 12:25 | 4164199 | ||
| 41049_TS_DEWT_032021.nc | 26-Oct-2024 12:25 | 423192 | ||
| 41049_TS_DEWT_032022.nc | 26-Oct-2024 12:25 | 429094 | ||
| 41049_TS_DEWT_032023.nc | 26-Oct-2024 12:26 | 428851 | ||
| 41049_TS_DEWT_032025.nc | 02-Apr-2025 07:01 | 418800 | ||
| 41049_TS_DEWT_032026.nc | 21-Mar-2026 15:26 | 421778 | ||
| 41049_TS_DEWT_042010.nc | 26-Oct-2024 12:26 | 429494 | ||
| 41049_TS_DEWT_042011.nc | 26-Oct-2024 12:26 | 428630 | ||
| 41049_TS_DEWT_042012.nc | 26-Oct-2024 12:26 | 429490 | ||
| 41049_TS_DEWT_042013.nc | 26-Oct-2024 12:26 | 429273 | ||
| 41049_TS_DEWT_042014.nc | 26-Oct-2024 12:26 | 429360 | ||
| 41049_TS_DEWT_042015.nc | 26-Oct-2024 12:26 | 429494 | ||
| 41049_TS_DEWT_042016.nc | 26-Oct-2024 12:26 | 428752 | ||
| 41049_TS_DEWT_042017.nc | 26-Oct-2024 12:26 | 429491 | ||
| 41049_TS_DEWT_042018.nc | 26-Oct-2024 12:26 | 429125 | ||
| 41049_TS_DEWT_042019.nc | 26-Oct-2024 12:26 | 429469 | ||
| 41049_TS_DEWT_042020.nc | 26-Oct-2024 12:26 | 449686 | ||
| 41049_TS_DEWT_042021.nc | 26-Oct-2024 12:26 | 448940 | ||
| 41049_TS_DEWT_042022.nc | 26-Oct-2024 12:26 | 4528160 | ||
| 41049_TS_DEWT_042023.nc | 26-Oct-2024 12:26 | 425483 | ||
| 41049_TS_DEWT_042025.nc | 01-May-2025 04:35 | 429764 | ||
| 41049_TS_DEWT_052009.nc | 26-Oct-2024 12:26 | 428893 | ||
| 41049_TS_DEWT_052010.nc | 26-Oct-2024 12:26 | 429829 | ||
| 41049_TS_DEWT_052011.nc | 26-Oct-2024 12:27 | 429789 | ||
| 41049_TS_DEWT_052012.nc | 26-Oct-2024 12:27 | 429835 | ||
| 41049_TS_DEWT_052013.nc | 26-Oct-2024 12:27 | 427887 | ||
| 41049_TS_DEWT_052014.nc | 26-Oct-2024 12:27 | 426890 | ||
| 41049_TS_DEWT_052015.nc | 26-Oct-2024 12:27 | 429751 | ||
| 41049_TS_DEWT_052016.nc | 26-Oct-2024 12:27 | 429592 | ||
| 41049_TS_DEWT_052017.nc | 26-Oct-2024 12:27 | 429835 | ||
| 41049_TS_DEWT_052018.nc | 26-Oct-2024 12:27 | 429831 | ||
| 41049_TS_DEWT_052019.nc | 26-Oct-2024 12:27 | 429580 | ||
| 41049_TS_DEWT_052020.nc | 26-Oct-2024 12:27 | 429834 | ||
| 41049_TS_DEWT_052021.nc | 26-Oct-2024 12:27 | 429832 | ||
| 41049_TS_DEWT_052022.nc | 26-Oct-2024 12:28 | 429829 | ||
| 41049_TS_DEWT_052023.nc | 26-Oct-2024 12:28 | 450008 | ||
| 41049_TS_DEWT_052025.nc | 01-Jun-2025 04:46 | 451207 | ||
| 41049_TS_DEWT_062009.nc | 26-Oct-2024 12:28 | 4819537 | ||
| 41049_TS_DEWT_062010.nc | 26-Oct-2024 12:28 | 428853 | ||
| 41049_TS_DEWT_062011.nc | 26-Oct-2024 12:28 | 429631 | ||
| 41049_TS_DEWT_062012.nc | 26-Oct-2024 12:28 | 429912 | ||
| 41049_TS_DEWT_062013.nc | 26-Oct-2024 12:28 | 429647 | ||
| 41049_TS_DEWT_062014.nc | 26-Oct-2024 12:28 | 429738 | ||
| 41049_TS_DEWT_062015.nc | 26-Oct-2024 12:28 | 428587 | ||
| 41049_TS_DEWT_062016.nc | 26-Oct-2024 12:28 | 429895 | ||
| 41049_TS_DEWT_062017.nc | 26-Oct-2024 12:28 | 429912 | ||
| 41049_TS_DEWT_062018.nc | 26-Oct-2024 12:28 | 427298 | ||
| 41049_TS_DEWT_062019.nc | 26-Oct-2024 12:28 | 424644 | ||
| 41049_TS_DEWT_062020.nc | 26-Oct-2024 12:28 | 590467 | ||
| 41049_TS_DEWT_062021.nc | 26-Oct-2024 12:28 | 429444 | ||
| 41049_TS_DEWT_062022.nc | 26-Oct-2024 12:28 | 429911 | ||
| 41049_TS_DEWT_062023.nc | 26-Oct-2024 12:28 | 429810 | ||
| 41049_TS_DEWT_062025.nc | 01-Jul-2025 04:54 | 429908 | ||
| 41049_TS_DEWT_072009.nc | 26-Oct-2024 12:28 | 429915 | ||
| 41049_TS_DEWT_072010.nc | 26-Oct-2024 12:28 | 429754 | ||
| 41049_TS_DEWT_072011.nc | 26-Oct-2024 12:28 | 449645 | ||
| 41049_TS_DEWT_072012.nc | 26-Oct-2024 12:28 | 3840245 | ||
| 41049_TS_DEWT_072013.nc | 26-Oct-2024 12:29 | 434110 | ||
| 41049_TS_DEWT_072014.nc | 26-Oct-2024 12:29 | 428159 | ||
| 41049_TS_DEWT_072015.nc | 26-Oct-2024 12:29 | 428621 | ||
| 41049_TS_DEWT_072016.nc | 26-Oct-2024 12:29 | 428720 | ||
| 41049_TS_DEWT_072017.nc | 26-Oct-2024 12:29 | 428285 | ||
| 41049_TS_DEWT_072018.nc | 26-Oct-2024 12:29 | 428674 | ||
| 41049_TS_DEWT_072019.nc | 26-Oct-2024 12:29 | 428456 | ||
| 41049_TS_DEWT_072020.nc | 26-Oct-2024 12:29 | 428470 | ||
| 41049_TS_DEWT_072021.nc | 26-Oct-2024 12:29 | 428882 | ||
| 41049_TS_DEWT_072022.nc | 26-Oct-2024 12:29 | 426368 | ||
| 41049_TS_DEWT_072023.nc | 26-Oct-2024 12:29 | 424518 | ||
| 41049_TS_DEWT_072025.nc | 01-Aug-2025 05:02 | 604695 | ||
| 41049_TS_DEWT_082009.nc | 26-Oct-2024 12:29 | 428878 | ||
| 41049_TS_DEWT_082010.nc | 26-Oct-2024 12:29 | 428885 | ||
| 41049_TS_DEWT_082011.nc | 26-Oct-2024 12:30 | 428865 | ||
| 41049_TS_DEWT_082012.nc | 26-Oct-2024 12:30 | 429209 | ||
| 41049_TS_DEWT_082013.nc | 26-Oct-2024 12:30 | 428887 | ||
| 41049_TS_DEWT_082014.nc | 26-Oct-2024 12:30 | 428450 | ||
| 41049_TS_DEWT_082015.nc | 26-Oct-2024 12:30 | 447195 | ||
| 41049_TS_DEWT_082016.nc | 26-Oct-2024 12:30 | 2944061 | ||
| 41049_TS_DEWT_082017.nc | 26-Oct-2024 12:30 | 4277720 | ||
| 41049_TS_DEWT_082018.nc | 26-Oct-2024 12:30 | 428970 | ||
| 41049_TS_DEWT_082019.nc | 26-Oct-2024 12:30 | 429403 | ||
| 41049_TS_DEWT_082020.nc | 26-Oct-2024 12:30 | 429757 | ||
| 41049_TS_DEWT_082021.nc | 26-Oct-2024 12:30 | 429686 | ||
| 41049_TS_DEWT_082022.nc | 26-Oct-2024 12:30 | 429745 | ||
| 41049_TS_DEWT_082023.nc | 26-Oct-2024 12:30 | 429907 | ||
| 41049_TS_DEWT_082025.nc | 01-Sep-2025 04:53 | 429914 | ||
| 41049_TS_DEWT_092009.nc | 26-Oct-2024 12:30 | 429911 | ||
| 41049_TS_DEWT_092010.nc | 26-Oct-2024 12:30 | 429122 | ||
| 41049_TS_DEWT_092011.nc | 26-Oct-2024 12:30 | 426517 | ||
| 41049_TS_DEWT_092012.nc | 26-Oct-2024 12:31 | 608098 | ||
| 41049_TS_DEWT_092013.nc | 26-Oct-2024 12:31 | 429917 | ||
| 41049_TS_DEWT_092014.nc | 26-Oct-2024 12:31 | 429917 | ||
| 41049_TS_DEWT_092015.nc | 26-Oct-2024 12:31 | 429910 | ||
| 41049_TS_DEWT_092016.nc | 26-Oct-2024 12:31 | 429217 | ||
| 41049_TS_DEWT_092017.nc | 26-Oct-2024 12:31 | 434218 | ||
| 41049_TS_DEWT_092018.nc | 26-Oct-2024 12:31 | 429862 | ||
| 41049_TS_DEWT_092019.nc | 26-Oct-2024 12:31 | 450179 | ||
| 41049_TS_DEWT_092020.nc | 26-Oct-2024 12:31 | 3418188 | ||
| 41049_TS_DEWT_092021.nc | 26-Oct-2024 12:31 | 3023872 | ||
| 41049_TS_DEWT_092022.nc | 26-Oct-2024 12:31 | 429251 | ||
| 41049_TS_DEWT_092023.nc | 26-Oct-2024 12:31 | 429149 | ||
| 41049_TS_DEWT_092025.nc | 01-Oct-2025 04:38 | 429188 | ||
| 41049_TS_DEWT_102009.nc | 26-Oct-2024 12:31 | 429335 | ||
| 41049_TS_DEWT_102010.nc | 26-Oct-2024 12:31 | 429296 | ||
| 41049_TS_DEWT_102011.nc | 26-Oct-2024 12:31 | 429572 | ||
| 41049_TS_DEWT_102012.nc | 26-Oct-2024 12:31 | 428493 | ||
| 41049_TS_DEWT_102013.nc | 26-Oct-2024 12:31 | 429557 | ||
| 41049_TS_DEWT_102014.nc | 26-Oct-2024 12:32 | 436493 | ||
| 41049_TS_DEWT_102015.nc | 26-Oct-2024 12:32 | 440247 | ||
| 41049_TS_DEWT_102016.nc | 26-Oct-2024 12:32 | 429549 | ||
| 41049_TS_DEWT_102017.nc | 26-Oct-2024 12:32 | 429566 | ||
| 41049_TS_DEWT_102018.nc | 26-Oct-2024 12:32 | 429571 | ||
| 41049_TS_DEWT_102019.nc | 26-Oct-2024 12:32 | 429569 | ||
| 41049_TS_DEWT_102020.nc | 26-Oct-2024 12:32 | 429567 | ||
| 41049_TS_DEWT_102021.nc | 26-Oct-2024 12:32 | 429573 | ||
| 41049_TS_DEWT_102022.nc | 26-Oct-2024 12:32 | 450043 | ||
| 41049_TS_DEWT_102023.nc | 26-Oct-2024 12:32 | 4202294 | ||
| 41049_TS_DEWT_102025.nc | 01-Nov-2025 07:32 | 429811 | ||
| 41049_TS_DEWT_112009.nc | 26-Oct-2024 12:32 | 428780 | ||
| 41049_TS_DEWT_112010.nc | 26-Oct-2024 12:33 | 429640 | ||
| 41049_TS_DEWT_112011.nc | 26-Oct-2024 12:33 | 429512 | ||
| 41049_TS_DEWT_112012.nc | 26-Oct-2024 12:33 | 429910 | ||
| 41049_TS_DEWT_112013.nc | 26-Oct-2024 12:33 | 429913 | ||
| 41049_TS_DEWT_112014.nc | 26-Oct-2024 12:33 | 425400 | ||
| 41049_TS_DEWT_112015.nc | 26-Oct-2024 12:33 | 429894 | ||
| 41049_TS_DEWT_112016.nc | 26-Oct-2024 12:33 | 901916 | ||
| 41049_TS_DEWT_112017.nc | 26-Oct-2024 12:33 | 429749 | ||
| 41049_TS_DEWT_112018.nc | 26-Oct-2024 12:33 | 429915 | ||
| 41049_TS_DEWT_112019.nc | 26-Oct-2024 12:33 | 429777 | ||
| 41049_TS_DEWT_112020.nc | 26-Oct-2024 12:33 | 429910 | ||
| 41049_TS_DEWT_112021.nc | 26-Oct-2024 12:33 | 429917 | ||
| 41049_TS_DEWT_112022.nc | 26-Oct-2024 12:33 | 429869 | ||
| 41049_TS_DEWT_112023.nc | 26-Oct-2024 12:33 | 429912 | ||
| 41049_TS_DEWT_112024.nc | 17-Jan-2025 15:06 | 450286 | ||
| 41049_TS_DEWT_112025.nc | 01-Dec-2025 09:19 | 4516766 | ||
| 41049_TS_DEWT_122009.nc | 26-Oct-2024 12:34 | 429026 | ||
| 41049_TS_DEWT_122010.nc | 26-Oct-2024 12:34 | 429326 | ||
| 41049_TS_DEWT_122011.nc | 26-Oct-2024 12:34 | 427630 | ||
| 41049_TS_DEWT_122012.nc | 26-Oct-2024 12:34 | 429167 | ||
| 41049_TS_DEWT_122013.nc | 26-Oct-2024 12:34 | 429566 | ||
| 41049_TS_DEWT_122014.nc | 26-Oct-2024 12:34 | 427892 | ||
| 41049_TS_DEWT_122015.nc | 26-Oct-2024 12:34 | 429571 | ||
| 41049_TS_DEWT_122016.nc | 26-Oct-2024 12:34 | 429567 | ||
| 41049_TS_DEWT_122017.nc | 26-Oct-2024 12:34 | 607597 | ||
| 41049_TS_DEWT_122018.nc | 26-Oct-2024 12:34 | 429532 | ||
| 41049_TS_DEWT_122019.nc | 26-Oct-2024 12:34 | 429566 | ||
| 41049_TS_DEWT_122020.nc | 26-Oct-2024 12:34 | 429571 | ||
| 41049_TS_DEWT_122021.nc | 26-Oct-2024 12:34 | 429559 | ||
| 41049_TS_DEWT_122022.nc | 26-Oct-2024 12:34 | 429566 | ||
| 41049_TS_DEWT_122023.nc | 26-Oct-2024 12:35 | 429571 | ||
| 41049_TS_DEWT_122024.nc | 22-Jan-2025 22:31 | 429571 | ||
| 41049_TS_DEWT_122025.nc | 01-Jan-2026 08:59 | 449509 | ||